www.pogodaiklimat.ru

Погода и климат >> Архив погоды >> Финляндия >> Вийтасаари


ПОГОДА в Вийтасаари

  • Прогноз погоды в Вийтасаари
  • Монитор погоды в Вийтасаари

АРХИВ ПОГОДЫ в Вийтасаари

Время (UTC), дата Ветер
(напр.,м/с)
 
Видим.   Явления Облачность Т
(С)
Тd
(С)
f
(%)
Тe
(С)
Тes
(С)
Комфортность P
(гПа)
Po
(гПа)
Тmin
(С)
Tmax
(С)
R
(мм)
R24
(мм)
S
(см)
18 9.06 Ю 3-7
{7}
50 км 4/4 1500 м
[]
+18.9 +7.3 47 +20 +20 1013.9 998.4 +16.3 +21.6 7
21 9.06 Ю 4-7
{7}
50 км ясно +15.4 +7.0 57 +15 +15 1014.4 998.8
00 10.06 Ю 3-7
{7}
50 км ясно +13.4 +7.9 69 +12 +12 1014.0 998.3
03 10.06 Ю 3-6
{7}
45 км 8/0 600 м
[]
+13.5 +9.6 77 +12 +13 1013.4 997.7
06 10.06 Ю 5-12
{12}
40 км 9/9 600 м
[]
+15.9 +9.4 65 +15 +15 1013.2 997.7 +11.8 +19.0
09 10.06 Ю 5-9
{10}
40 км 9/0 1000 м
[]
+16.4 +7.9 57 +16 +19 1013.8 998.2
12 10.06 Ю 4-9
{13}
50 км 10/10 1000 м
[]
+16.0 +8.6 61 +15 +15 1014.7 999.1
15 10.06 Ю 4-8
{8}
50 км 10/0 1000 м
[]
+15.9 +8.9 63 +15 +17 1014.7 999.2
18 10.06 Ю 4-8
{8}
50 км ясно +16.4 +9.3 63 +16 +16 1014.9 999.3 +15.2 +17.8
21 10.06 ЮЗ 3-7
{7}
50 км 1/0 1500 м
[]
+14.8 +9.5 71 +14 +14 1016.3 1000.7
00 11.06 ЮЗ 2-5
{5}
50 км ясно +12.5 +9.2 80 +12 +12 1017.9 1002.1
03 11.06 З 2-5
{5}
50 км 8/0 1500 м
[]
+11.4 +8.3 81 +10 +11 1020.0 1004.0
06 11.06 СЗ 2-5
{6}
45 км 9/9 1500 м
[]
+11.2 +3.4 59 +10 +11 1022.6 1006.6 +10.6 +16.5
09 11.06 З 2-5
{7}
30 км 4/0 1500 м
[]
+14.2 +2.4 45 +14 +24 1023.6 1007.8
12 11.06 СЗ 3-7
{7}
40 км 4/0 1500 м
[]
+14.2 +1.3 41 +14 +21 1024.2 1008.3
15 11.06 З 3-7
{9}
40 км ясно +14.6 -0.4 36 +14 +18 1025.1 1009.3
18 11.06 СЗ 3-6
{7}
50 км ясно +10.5 +1.4 53 +9 +9 1026.2 1010.2 +10.5 +16.0
21 11.06 СЗ 2-4
{5}
50 км 9/0 1000 м
[]
+7.6 +1.8 67 +6 +6 1027.9 1011.7
00 12.06 СЗ 1-4
{5}
50 км ясно +5.0 +1.8 80 +4 +4 1028.9 1012.5
03 12.06 С 1-4
{5}
50 км ясно +6.7 +2.9 77 +6 +7 1029.4 1013.1
06 12.06 С 2-5
{5}
45 км 4/4 600 м
[]
+11.0 +2.4 55 +10 +14 1030.2 1014.1 +4.4 +11.0
09 12.06 С 2-5
{5}
35 км 1/0 1500 м
[]
+13.0 +0.6 43 +13 +24 опасность
простуды
1030.3 1014.3
12 12.06 С 2-4
{5}
40 км ясно +14.4 -0.2 37 +14 +26 опасность
простуды
1029.0 1013.1
15 12.06 СВ 2-4
{5}
40 км 1/0
[]
+14.6 -0.3 36 +15 +20 1028.2 1012.4
18 12.06 В 3-5
{5}
50 км 1/0
[]
+13.1 +1.8 46 +12 +13 1027.8 1011.9 +9.6 +15.1
21 12.06 В 2-4
{5}
50 км ясно +10.7 +3.6 61 +10 +10 1027.7 1011.6
00 13.06 В 2-4
{5}
50 км 9/0
[]
+9.5 +3.8 68 +8 +8 1028.0 1011.9
03 13.06 СВ 2-5
{5}
50 км 10/0
[]
+10.0 +4.2 67 +9 +9 1027.4 1011.3
06 13.06 В 3-6
{8}
45 км 9/9
[]
+11.9 +4.5 60 +10 +11 1026.5 1010.5 +8.9 +13.1
09 13.06 В 4-8
{9}
35 км слаб. морось {дождь} 10/0
[]
+12.0 +3.1 54 +10 +14 1025.9 1009.9
12 13.06 СВ 2-5
{7}
50 км {ливн. осадки, дождь} 10/0
[]
+11.9 +4.3 60 +11 +17 1024.7 1008.8
15 13.06 СВ 2-5
{5}
50 км 10/0 1500 м
[]
+11.9 +5.0 63 +11 +14 1022.2 1006.3
18 13.06 СВ 2-4
{5}
50 км в посл. час морось {ливн. осадки, дождь} 10/10 1000 м
[]
+12.0 +6.0 67 +11 +11 1021.1 1005.2 +10.8 +12.4 0.1
21 13.06 СВ 2-5
{5}
50 км 10/0 1000 м
[]
+11.6 +6.2 69 +11 +11 1020.7 1004.8
00 14.06 СВ 1-4
{4}
50 км 10/0 1000 м
[]
+11.1 +6.4 73 +11 +11 1019.5 1003.5
03 14.06 С 1-4
{4}
50 км 10/0 1500 м
[]
+11.5 +7.1 74 +11 +12 1018.4 1002.5
06 14.06 В 2-4
{4}
45 км 9/5 600 м
[]
+13.6 +8.3 70 +13 +15 1018.5 1002.8 +11.0 +14.1
09 14.06 В 3-5
{6}
40 км 9/0
[]
+17.1 +8.5 57 +17 +23 1017.8 1002.2
12 14.06 ЮВ 3-5
{6}
40 км 9/0
[]
+17.9 +10.5 62 +18 +23 1017.3 1001.8
15 14.06 ЮВ 2-4
{5}
50 км 9/9 1000 м
[]
+17.8 +9.0 56 +18 +19 1015.8 1000.3
18 14.06 ЮВ 2-4
{6}
45 км слаб. ливневой дождь 10/10 1000 м
[]
+14.5 +11.4 82 +14 +14 1015.0 999.4 +13.6 +18.7
21 14.06 штиль 0-2
{4}
3000 м сильн. дождь {ливн. осадки} 10/10 300 м
[]
+12.1 +12.0 99 +11 +11 1014.7 998.9 6
00 15.06 штиль 0-1
{2}
6000 м дождь {ливн. осадки} 10/10 50 м
[]
+11.9 +11.9 100 +11 +11 1014.1 998.3 4
03 15.06 штиль 0
{2}
11 км слаб. дождь 10/9 100 м
[]
+12.2 +12.2 100 +11 +12 1014.0 998.3 0.9
06 15.06 штиль 0-3
{3}
35 км слаб. морось {дождь} 9/3 100 м
[]
+13.4 +12.3 93 +13 +16 1014.5 998.8 +11.9 +14.5 22
09 15.06 Ю 1-3
{3}
40 км {морось} 9/3 300 м
[]
+15.4 +12.3 82 +16 +22 1015.1 999.5
12 15.06 ЮЗ 2-5
{5}
30 км {морось} ясно +19.7 +12.6 64 +22 +34 комфорт 1015.1 999.7
15 15.06 ЮЗ 2-3
{4}
40 км 4/0 2000 м
[]
+21.4 +10.1 48 +23 +27 комфорт 1014.5 999.2
18 15.06 ЮЗ 2-4
{4}
45 км 9/9
[]
+19.6 +11.0 58 +21 +22 комфорт 1014.4 999.1 +13.3 +21.9
21 15.06 ЮЗ 2-4
{5}
50 км ясно +16.0 +8.1 59 +16 +16 1014.9 999.3
00 16.06 З 1-2
{3}
50 км ясно +11.5 +6.6 72 +11 +11 1015.4 999.6
03 16.06 Ю 1-3
{4}
50 км ясно +12.4 +9.8 84 +12 +14 1015.3 999.5
06 16.06 ЮЗ 2-3
{4}
40 км ясно +16.7 +9.9 64 +17 +23 1014.7 999.2 +10.7 +19.6
09 16.06 ЮЗ 2-4
{5}
35 км ясно +21.4 +10.6 50 +23 +36 комфорт 1013.7 998.4
12 16.06 ЮЗ 2-4
{5}
30 км ясно +23.5 +7.7 36 +24 +36 комфорт 1012.2 997.1

 

Местоположение метеостанции Вийтасаари (Финляндия): широта 63.08 долгота 25.86 высота над уровнем моря 130 м.

В архиве по умолчанию представлена погода в Вийтасаари за последнюю неделю. Архивные данные за месяц целиком и за предыдущие месяцы, начиная с января 2011 года, Вы можете получить, выбрав интересующий диапазон дат из раскрывающегося списка и нажав кнопку "Ввод!".


*Определитесь, кто Вы:
робот инопланетянин человек

Внимание! Время в таблицах - всемирное. Для получения местного времени необходимо прибавить поправку, которая равна 1 ч.

Смотрите также архив погоды в соседних городах и на ближайших метеорологических станциях:

Погода в Весанто (Финляндия) (33 км)
Погода в Куопио Маанинка (Финляндия) (73 км)
Погода в Пюхяярви (Финляндия) (74 км)
Погода в Ювяскюля (Финляндия) (76 км)
Погода в Алаярви Моксы (Финляндия) (81 км)
Погода в Пуроле (Финляндия) (82 км)
Погода в Мультия Кархила (Финляндия) (83 км)
Погода в Куопио Савилахти (Финляндия) (92 км)
Погода в Аэропорту Куопио (Финляндия) (98 км)
Погода в Эхтяри (Финляндия) (103 км)

Пояснения к столбцам:

Ветер - указаны скорость ветра в м/с - средняя за 10 мин, порывы в срок и между сроками (в фигурных скобках) и направление, откуда дует ветер: С - северный, СВ - северо-восточный, В - восточный, ЮВ - юго-восточный, Ю - южный, ЮЗ - юго-западный, З - западный, СЗ - северо-западный.
Видимость - горизонтальная дальность видимости в метрах или километрах. При видимости от 1 до 10 км при отсутствии осадков обычно наблюдается дымка, при ухудшении видимости до 1 км и менее - туман. В сухую погоду видимость может ухудшаться дымом, пылью или мглою.
Явления - указаны атмосферные явления, наблюдавшиеся в срок или в последний час перед сроком; фигурными скобками обозначены явления, наблюдавшиеся между сроками (за 1-3 часа до срока); квадратными скобками обозначены град или гололедные отложения с указанием их диаметра в мм.
Облачность - указаны через наклонную черту общая и нижняя облачность в баллах и высота нижней границы облаков в метрах; квадратными скобками обозначены формы облаков: Ci - перистые, Cs - перисто-слоистые, Cc - перисто-кучевые, Ac - высококучевые, As - высокослоистые, Sc - слоисто-кучевые, Ns - слоисто-дождевые, Cu - кучевые, Cb - кучево-дождевые. Подробнее классификацию облаков см. в Атласе облаков (PDF).
T - Температура воздуха - температура, измеренная на высоте 2 м над землей.
Td - Температура точки росы - температура, при понижении до которой содержащийся в воздухе водяной пар достигнет насыщения.
f - Относительная влажность воздуха - влажноcть воздуха, измеренная на высоте 2 м над землей.
Te - Эффективная температура - температура, которую ощущает одетый по сезону человек в тени. Характеристика душности погоды. При расчете учитывается влияние влажности воздуха и скорости ветра на теплоощущения человека.
Tes - Эффективная температура на солнце - температура, которую ощущает человек, с поправкой на солнечный нагрев. Характеристика знойности погоды. Зависит от высоты солнца над горизонтом, облачности и скорости ветра. Ночью, в пасмурную погоду, а также при ветре 12 м/с и более поправка равна нулю.
P - Атмосферное давление - приведенное к уровню моря атмосферное давление.
Po - Атмосферное давление - измеренное на уровне метеостанции атмосферное давление.
Tmin - Минимальная температура - минимум температуры воздуха на высоте 2 м над землей.
Tmax - Максимальная температура - максимум температуры воздуха на высоте 2 м над землей.
R - Количество осадков - Количество выпавших осадков за период времени, мм. При наведении курсора мыши на число - период времени, за который выпало указанное количество осадков.
R24 - Количество осадков - Количество выпавших осадков за 24 часа, мм.
S - Снежный покров - Высота снежного покрова, см. При наведении курсора мыши на число - состояние снежного покрова и степень покрытия местности в баллах.